Time,TemperatureF,DewpointF,PressureIn,WindDirection,WindDirectionDegrees,WindSpeedMPH,WindSpeedGustMPH,Humidity,HourlyPrecipIn,Conditions,Clouds,dailyrainin,SoftwareType,DateUTC
2013-09-13 00:00:00,77.0,71.2,29.94,SSE,160,0.0,0.0,82,0.00,,---,0.00,VWS V13.01,2013-09-13 05:00:00,
2013-09-13 00:10:00,76.8,71.3,29.94,SSE,160,0.0,0.0,83,0.00,,---,0.00,VWS V13.01,2013-09-13 05:10:00,
2013-09-13 00:20:00,76.5,71.0,29.94,SSE,160,0.0,0.0,83,0.00,,---,0.00,VWS V13.01,2013-09-13 05:20:00,
2013-09-13 00:30:00,76.3,71.1,29.94,SSE,160,0.0,0.0,84,0.00,,---,0.00,VWS V13.01,2013-09-13 05:30:00,
2013-09-13 00:40:00,76.5,71.6,29.94,SSE,160,0.0,0.0,85,0.00,,---,0.00,VWS V13.01,2013-09-13 05:40:00,
2013-09-13 00:50:00,76.5,71.8,29.94,SSE,160,0.0,0.0,86,0.00,,---,0.00,VWS V13.01,2013-09-13 05:50:00,
2013-09-13 01:00:00,76.1,71.8,29.94,SSE,160,0.0,0.0,86,0.00,,---,0.00,VWS V13.01,2013-09-13 06:00:00,
2013-09-13 01:10:00,76.1,71.8,29.94,SSE,160,0.0,0.0,86,0.00,,---,0.00,VWS V13.01,2013-09-13 06:10:00,
2013-09-13 01:20:00,75.7,71.4,29.94,SSE,160,0.0,0.0,86,0.00,,---,0.00,VWS V13.01,2013-09-13 06:20:00,
2013-09-13 01:30:00,75.7,71.7,29.94,SSE,160,0.0,0.0,87,0.00,,---,0.00,VWS V13.01,2013-09-13 06:30:00,
2013-09-13 01:40:00,75.7,71.9,29.94,SSE,160,0.0,0.0,88,0.00,,---,0.00,VWS V13.01,2013-09-13 06:40:00,
2013-09-13 01:50:00,75.7,72.2,29.94,SSE,160,0.0,0.0,89,0.00,,---,0.00,VWS V13.01,2013-09-13 06:50:00,
2013-09-13 02:00:00,75.7,72.2,29.94,SSE,160,0.0,0.0,89,0.00,,---,0.00,VWS V13.01,2013-09-13 07:00:00,
2013-09-13 02:10:00,75.6,72.0,29.94,SSE,160,0.0,0.0,89,0.00,,---,0.00,VWS V13.01,2013-09-13 07:10:00,
2013-09-13 02:20:00,75.4,71.8,29.94,SSE,160,0.0,0.0,89,0.00,,---,0.00,VWS V13.01,2013-09-13 07:20:00,
2013-09-13 02:30:00,75.4,72.1,29.94,SSE,160,0.0,0.0,90,0.00,,---,0.00,VWS V13.01,2013-09-13 07:30:00,
2013-09-13 02:40:00,75.4,72.1,29.94,SSE,160,0.0,0.0,90,0.00,,---,0.00,VWS V13.01,2013-09-13 07:40:00,
2013-09-13 02:50:00,75.4,72.4,29.94,SSE,160,0.0,0.0,90,0.00,,---,0.00,VWS V13.01,2013-09-13 07:50:00,
2013-09-13 03:00:00,75.2,72.2,29.91,SSE,160,0.0,0.0,90,0.00,,---,0.00,VWS V13.01,2013-09-13 08:00:00,
2013-09-13 03:10:00,75.4,72.4,29.91,SSE,160,0.0,0.0,90,0.00,,---,0.00,VWS V13.01,2013-09-13 08:10:00,
2013-09-13 03:20:00,75.4,72.6,29.91,SSE,160,0.0,0.0,91,0.00,,---,0.00,VWS V13.01,2013-09-13 08:20:00,
2013-09-13 03:30:00,75.4,72.6,29.91,SSE,160,0.0,0.0,91,0.00,,---,0.00,VWS V13.01,2013-09-13 08:30:00,
2013-09-13 03:40:00,75.2,72.5,29.91,SSE,160,0.0,0.0,91,0.00,,---,0.00,VWS V13.01,2013-09-13 08:40:00,
2013-09-13 03:50:00,75.2,72.5,29.91,SSE,160,0.0,0.0,91,0.00,,---,0.00,VWS V13.01,2013-09-13 08:50:00,
2013-09-13 04:00:00,75.0,72.5,29.91,SSE,160,0.0,0.0,92,0.00,,---,0.00,VWS V13.01,2013-09-13 09:00:00,
2013-09-13 04:10:00,74.8,72.4,29.91,SSE,160,0.0,0.0,92,0.00,,---,0.00,VWS V13.01,2013-09-13 09:10:00,
2013-09-13 04:20:00,74.8,72.4,29.91,SSE,160,0.0,0.0,92,0.00,,---,0.00,VWS V13.01,2013-09-13 09:20:00,
2013-09-13 04:30:00,74.7,72.2,29.91,SSE,160,0.0,0.0,92,0.00,,---,0.00,VWS V13.01,2013-09-13 09:30:00,
2013-09-13 04:40:00,74.8,72.6,29.91,SSE,160,0.0,0.0,93,0.00,,---,0.00,VWS V13.01,2013-09-13 09:40:00,
2013-09-13 04:50:00,74.7,72.4,29.91,SSE,160,0.0,0.0,93,0.00,,---,0.00,VWS V13.01,2013-09-13 09:50:00,
2013-09-13 05:00:00,74.7,72.4,29.91,SSE,160,0.0,0.0,93,0.00,,---,0.00,VWS V13.01,2013-09-13 10:00:00,
2013-09-13 05:10:00,74.7,72.7,29.91,SSE,160,0.0,0.0,94,0.00,,---,0.00,VWS V13.01,2013-09-13 10:10:00,
2013-09-13 05:20:00,74.5,72.5,29.91,SSE,160,0.0,0.0,94,0.00,,---,0.00,VWS V13.01,2013-09-13 10:20:00,
2013-09-13 05:30:00,74.5,72.5,29.91,SSE,160,0.0,0.0,94,0.00,,---,0.00,VWS V13.01,2013-09-13 10:30:00,
2013-09-13 05:40:00,74.5,72.8,29.91,SSE,160,0.0,0.0,94,0.00,,---,0.00,VWS V13.01,2013-09-13 10:40:00,
2013-09-13 05:50:00,74.5,72.8,29.91,SSE,160,0.0,0.0,94,0.00,,---,0.00,VWS V13.01,2013-09-13 10:50:00,
2013-09-13 06:00:00,74.8,73.1,29.91,SSE,160,0.0,0.0,94,0.00,,---,0.00,VWS V13.01,2013-09-13 11:00:00,
2013-09-13 06:10:00,74.7,72.9,29.91,SSE,160,0.0,0.0,94,0.00,,---,0.00,VWS V13.01,2013-09-13 11:10:00,
2013-09-13 06:20:00,74.7,73.2,29.91,SSE,160,0.0,0.0,95,0.00,,---,0.00,VWS V13.01,2013-09-13 11:20:00,
2013-09-13 06:30:00,74.7,73.2,29.91,SSE,160,0.0,0.0,95,0.00,,---,0.00,VWS V13.01,2013-09-13 11:30:00,
2013-09-13 06:40:00,74.8,73.6,29.91,SSE,160,0.0,0.0,96,0.00,,---,0.00,VWS V13.01,2013-09-13 11:40:00,
2013-09-13 06:50:00,74.7,73.4,29.91,SSE,160,0.0,0.0,96,0.00,,---,0.00,VWS V13.01,2013-09-13 11:50:00,
2013-09-13 07:00:00,74.8,73.6,29.91,SSE,160,0.0,0.0,96,0.00,,---,0.00,VWS V13.01,2013-09-13 12:00:00,
2013-09-13 07:10:00,74.8,73.6,29.94,SSE,160,0.0,0.0,96,0.00,,---,0.00,VWS V13.01,2013-09-13 12:10:00,
2013-09-13 07:20:00,75.2,74.0,29.94,SSE,160,0.0,0.0,96,0.00,,---,0.00,VWS V13.01,2013-09-13 12:20:00,
2013-09-13 07:30:00,75.6,74.6,29.94,SSE,160,0.0,0.0,97,0.00,,---,0.00,VWS V13.01,2013-09-13 12:30:00,
2013-09-13 07:40:00,75.9,74.9,29.94,SSE,160,0.0,0.0,97,0.00,,---,0.00,VWS V13.01,2013-09-13 12:40:00,
2013-09-13 07:50:00,76.3,75.3,29.94,SSE,160,0.0,0.0,97,0.00,,---,0.00,VWS V13.01,2013-09-13 12:50:00,
2013-09-13 08:00:00,77.0,76.0,29.94,SSE,160,0.0,0.0,97,0.00,,---,0.00,VWS V13.01,2013-09-13 13:00:00,
2013-09-13 08:10:00,77.4,75.9,29.94,SSE,160,0.0,0.0,95,0.00,,---,0.00,VWS V13.01,2013-09-13 13:10:00,
2013-09-13 08:20:00,77.4,74.9,29.94,SSE,160,0.0,0.0,92,0.00,,---,0.00,VWS V13.01,2013-09-13 13:20:00,
2013-09-13 08:30:00,77.9,74.9,29.94,SSE,160,0.0,0.0,90,0.00,,---,0.00,VWS V13.01,2013-09-13 13:30:00,
2013-09-13 08:40:00,78.1,73.7,29.94,SSE,160,0.0,0.0,86,0.00,,---,0.00,VWS V13.01,2013-09-13 13:40:00,
2013-09-13 08:50:00,79.2,73.6,29.94,SSE,160,0.0,0.0,83,0.00,,---,0.00,VWS V13.01,2013-09-13 13:50:00,
2013-09-13 09:00:00,79.7,71.8,29.94,SSE,160,0.0,0.0,77,0.00,,---,0.00,VWS V13.01,2013-09-13 14:00:00,
2013-09-13 09:10:00,80.4,70.2,29.94,SSE,160,0.0,0.0,71,0.00,,---,0.00,VWS V13.01,2013-09-13 14:10:00,
2013-09-13 09:20:00,80.8,70.3,29.94,SSE,160,0.0,0.0,70,0.00,,---,0.00,VWS V13.01,2013-09-13 14:20:00,
2013-09-13 09:30:00,81.3,70.8,29.94,SSE,160,0.0,0.0,70,0.00,,---,0.00,VWS V13.01,2013-09-13 14:30:00,
2013-09-13 09:40:00,82.8,71.1,29.94,SSE,160,0.0,0.0,68,0.00,,---,0.00,VWS V13.01,2013-09-13 14:40:00,
2013-09-13 09:50:00,84.0,70.9,29.94,SSE,160,0.0,0.0,65,0.00,,---,0.00,VWS V13.01,2013-09-13 14:50:00,
2013-09-13 10:00:00,84.9,71.0,29.94,SSE,160,0.0,0.0,63,0.00,,---,0.00,VWS V13.01,2013-09-13 15:00:00,
2013-09-13 10:10:00,86.2,71.8,29.94,SSE,160,0.0,0.0,62,0.00,,---,0.00,VWS V13.01,2013-09-13 15:10:00,
2013-09-13 10:20:00,86.7,71.6,29.94,SSE,160,0.0,0.0,61,0.00,,---,0.00,VWS V13.01,2013-09-13 15:20:00,
2013-09-13 10:30:00,87.1,71.5,29.94,SSE,160,0.0,0.0,60,0.00,,---,0.00,VWS V13.01,2013-09-13 15:30:00,
2013-09-13 10:40:00,88.2,71.7,29.94,SSE,160,0.0,0.0,58,0.00,,---,0.00,VWS V13.01,2013-09-13 15:40:00,
2013-09-13 10:50:00,88.3,70.2,29.94,SSE,160,0.0,0.0,55,0.00,,---,0.00,VWS V13.01,2013-09-13 15:50:00,
2013-09-13 11:00:00,88.3,70.2,29.91,SSE,160,0.0,0.0,55,0.00,,---,0.00,VWS V13.01,2013-09-13 16:00:00,
2013-09-13 11:10:00,89.1,71.3,29.94,SSE,160,0.0,0.0,56,0.00,,---,0.00,VWS V13.01,2013-09-13 16:10:00,
2013-09-13 11:20:00,90.0,70.0,29.94,SSE,160,0.0,0.0,52,0.00,,---,0.00,VWS V13.01,2013-09-13 16:20:00,
2013-09-13 11:30:00,90.3,69.9,29.94,SSE,160,0.0,0.0,51,0.00,,---,0.00,VWS V13.01,2013-09-13 16:30:00,
2013-09-13 11:40:00,90.5,69.6,29.91,SSE,160,0.0,0.0,50,0.00,,---,0.00,VWS V13.01,2013-09-13 16:40:00,
2013-09-13 11:50:00,91.6,70.1,29.91,SSE,160,0.0,0.0,50,0.00,,---,0.00,VWS V13.01,2013-09-13 16:50:00,
2013-09-13 12:00:00,91.6,69.6,29.91,SSE,160,0.0,0.0,49,0.00,,---,0.00,VWS V13.01,2013-09-13 17:00:00,
2013-09-13 12:10:00,91.9,69.5,29.91,SSE,160,0.0,0.0,48,0.00,,---,0.00,VWS V13.01,2013-09-13 17:10:00,
2013-09-13 12:20:00,92.1,69.6,29.91,SSE,160,0.0,0.0,48,0.00,,---,0.00,VWS V13.01,2013-09-13 17:20:00,
2013-09-13 12:30:00,92.1,69.1,29.91,SSE,160,0.0,0.0,47,0.00,,---,0.00,VWS V13.01,2013-09-13 17:30:00,
2013-09-13 12:40:00,92.7,69.6,29.91,SSE,160,0.0,0.0,47,0.00,,---,0.00,VWS V13.01,2013-09-13 17:40:00,
2013-09-13 12:50:00,92.5,69.0,29.91,SSE,160,0.0,0.0,46,0.00,,---,0.00,VWS V13.01,2013-09-13 17:50:00,
2013-09-13 13:00:00,92.5,70.9,29.91,North,9,5.8,10.5,50,0.00,,---,0.00,VWS V13.01,2013-09-13 18:00:00,
2013-09-13 13:10:00,91.9,69.5,29.88,SE,126,0.0,6.7,48,0.00,,---,0.00,VWS V13.01,2013-09-13 18:10:00,
2013-09-13 13:20:00,92.3,70.3,29.88,ESE,102,0.0,6.3,49,0.00,,---,0.00,VWS V13.01,2013-09-13 18:20:00,
2013-09-13 13:30:00,91.8,70.2,29.88,NE,36,4.0,8.1,50,0.00,,---,0.00,VWS V13.01,2013-09-13 18:30:00,
2013-09-13 13:40:00,92.3,70.3,29.88,East,81,0.0,5.8,49,0.00,,---,0.00,VWS V13.01,2013-09-13 18:40:00,
2013-09-13 13:50:00,92.3,70.3,29.88,North,349,6.3,7.6,49,0.00,,---,0.00,VWS V13.01,2013-09-13 18:50:00,
2013-09-13 14:00:00,91.9,70.4,29.88,East,98,3.1,4.9,50,0.00,,---,0.00,VWS V13.01,2013-09-13 19:00:00,
2013-09-13 14:10:00,91.8,70.2,29.85,North,4,3.6,7.6,50,0.00,,---,0.00,VWS V13.01,2013-09-13 19:10:00,
2013-09-13 14:20:00,92.5,69.9,29.85,ESE,104,5.4,8.1,48,0.00,,---,0.00,VWS V13.01,2013-09-13 19:20:00,
2013-09-13 14:30:00,93.2,69.6,29.85,East,93,6.3,8.7,46,0.00,,---,0.00,VWS V13.01,2013-09-13 19:30:00,
2013-09-13 14:40:00,94.1,70.9,29.85,SSE,157,2.7,4.0,47,0.00,,---,0.00,VWS V13.01,2013-09-13 19:40:00,
2013-09-13 14:50:00,93.9,70.8,29.85,ENE,77,3.1,5.8,47,0.00,,---,0.00,VWS V13.01,2013-09-13 19:50:00,
2013-09-13 15:00:00,93.6,70.4,29.83,North,349,3.1,7.6,47,0.00,,---,0.00,VWS V13.01,2013-09-13 20:00:00,
2013-09-13 15:10:00,93.9,71.3,29.83,ESE,109,4.0,7.2,48,0.00,,---,0.00,VWS V13.01,2013-09-13 20:10:00,
2013-09-13 15:20:00,94.1,70.4,29.83,SE,130,5.8,10.5,46,0.00,,---,0.00,VWS V13.01,2013-09-13 20:20:00,
2013-09-13 15:30:00,94.3,70.6,29.83,East,84,7.6,8.7,46,0.00,,---,0.00,VWS V13.01,2013-09-13 20:30:00,
2013-09-13 15:40:00,94.3,69.6,29.83,South,173,0.0,9.2,45,0.00,,---,0.00,VWS V13.01,2013-09-13 20:40:00,
2013-09-13 15:50:00,95.4,70.5,29.83,South,187,4.9,8.3,45,0.00,,---,0.00,VWS V13.01,2013-09-13 20:50:00,
2013-09-13 16:00:00,95.4,70.0,29.83,ESE,110,7.6,8.3,44,0.00,,---,0.00,VWS V13.01,2013-09-13 21:00:00,
2013-09-13 16:10:00,95.0,69.7,29.80,East,95,4.0,11.9,44,0.00,,---,0.00,VWS V13.01,2013-09-13 21:10:00,
2013-09-13 16:20:00,94.6,69.4,29.80,ESE,109,4.0,11.9,44,0.00,,---,0.00,VWS V13.01,2013-09-13 21:20:00,
2013-09-13 16:30:00,94.6,69.4,29.80,ENE,65,5.8,8.7,44,0.00,,---,0.00,VWS V13.01,2013-09-13 21:30:00,
2013-09-13 16:40:00,94.8,70.1,29.80,East,81,2.7,8.7,45,0.00,,---,0.00,VWS V13.01,2013-09-13 21:40:00,
2013-09-13 16:50:00,94.5,69.7,29.80,East,88,4.0,8.7,45,0.00,,---,0.00,VWS V13.01,2013-09-13 21:50:00,
2013-09-13 17:00:00,94.3,69.6,29.80,ENE,61,3.1,8.3,45,0.00,,---,0.00,VWS V13.01,2013-09-13 22:00:00,
2013-09-13 17:10:00,93.9,69.2,29.80,NNW,346,0.0,2.2,45,0.00,,---,0.00,VWS V13.01,2013-09-13 22:10:00,
2013-09-13 17:20:00,93.7,68.6,29.80,ESE,111,0.0,8.7,44,0.00,,---,0.00,VWS V13.01,2013-09-13 22:20:00,
2013-09-13 17:30:00,93.9,69.2,29.80,East,91,5.8,8.7,45,0.00,,---,0.00,VWS V13.01,2013-09-13 22:30:00,
2013-09-13 17:40:00,93.9,69.2,29.80,South,178,5.8,6.3,45,0.00,,---,0.00,VWS V13.01,2013-09-13 22:40:00,
2013-09-13 17:50:00,93.6,68.9,29.80,South,171,8.3,8.7,45,0.00,,---,0.00,VWS V13.01,2013-09-13 22:50:00,
2013-09-13 18:00:00,92.7,71.1,29.80,SE,125,7.2,8.1,50,0.00,,---,0.00,VWS V13.01,2013-09-13 23:00:00,
2013-09-13 18:10:00,91.8,70.7,29.80,ESE,118,6.3,10.1,50,0.00,,---,0.00,VWS V13.01,2013-09-13 23:10:00,
2013-09-13 18:20:00,91.0,70.5,29.80,South,187,6.3,8.7,51,0.00,,---,0.00,VWS V13.01,2013-09-13 23:20:00,
2013-09-13 18:30:00,90.7,70.2,29.80,SSE,163,8.1,11.0,51,0.00,,---,0.00,VWS V13.01,2013-09-13 23:30:00,
2013-09-13 18:40:00,89.6,69.7,29.80,SSE,150,4.0,10.5,52,0.00,,---,0.00,VWS V13.01,2013-09-13 23:40:00,
2013-09-13 18:50:00,88.9,69.9,29.80,South,189,5.8,12.3,54,0.00,,---,0.00,VWS V13.01,2013-09-13 23:50:00,
2013-09-13 19:00:00,88.2,70.1,29.80,South,185,6.3,10.5,55,0.00,,---,0.00,VWS V13.01,2013-09-14 00:00:00,
2013-09-13 19:10:00,87.6,70.8,29.80,South,176,8.7,10.5,58,0.00,,---,0.00,VWS V13.01,2013-09-14 00:10:00,
2013-09-13 19:20:00,87.1,71.1,29.80,ESE,120,2.2,10.1,59,0.00,,---,0.00,VWS V13.01,2013-09-14 00:20:00,
2013-09-13 19:30:00,86.5,71.0,29.80,SSE,157,3.6,7.6,60,0.00,,---,0.00,VWS V13.01,2013-09-14 00:30:00,
2013-09-13 19:40:00,85.8,71.5,29.83,SSW,200,6.7,8.3,62,0.00,,---,0.00,VWS V13.01,2013-09-14 00:40:00,
2013-09-13 19:50:00,85.3,71.7,29.83,SSE,154,4.0,8.3,64,0.00,,---,0.00,VWS V13.01,2013-09-14 00:50:00,
2013-09-13 20:00:00,84.7,71.6,29.83,South,175,4.5,6.3,65,0.00,,---,0.00,VWS V13.01,2013-09-14 01:00:00,
2013-09-13 20:10:00,84.4,72.0,29.83,ESE,105,3.1,8.3,66,0.00,,---,0.00,VWS V13.01,2013-09-14 01:10:00,
2013-09-13 20:20:00,84.0,72.0,29.83,SE,132,4.0,7.6,67,0.00,,---,0.00,VWS V13.01,2013-09-14 01:20:00,
2013-09-13 20:30:00,83.7,72.0,29.83,SSW,197,2.7,6.3,68,0.00,,---,0.00,VWS V13.01,2013-09-14 01:30:00,
2013-09-13 20:40:00,83.3,71.6,29.83,SSE,152,3.6,6.3,68,0.00,,---,0.00,VWS V13.01,2013-09-14 01:40:00,
2013-09-13 20:50:00,82.9,71.6,29.83,SSE,155,4.0,5.8,69,0.00,,---,0.00,VWS V13.01,2013-09-14 01:50:00,
2013-09-13 21:00:00,82.6,71.3,29.83,SSW,194,4.0,4.0,69,0.00,,---,0.00,VWS V13.01,2013-09-14 02:00:00,
2013-09-13 21:10:00,82.2,71.6,29.83,South,181,5.4,5.8,70,0.00,,---,0.00,VWS V13.01,2013-09-14 02:10:00,
2013-09-13 21:20:00,82.0,71.5,29.83,SSW,201,0.0,3.6,70,0.00,,---,0.00,VWS V13.01,2013-09-14 02:20:00,
2013-09-13 21:30:00,81.7,71.4,29.85,SSE,164,0.0,4.0,71,0.00,,---,0.00,VWS V13.01,2013-09-14 02:30:00,
2013-09-13 21:40:00,81.5,71.6,29.85,South,173,0.0,3.1,72,0.00,,---,0.00,VWS V13.01,2013-09-14 02:40:00,
2013-09-13 21:50:00,81.1,71.3,29.85,South,170,2.2,4.0,72,0.00,,---,0.00,VWS V13.01,2013-09-14 02:50:00,
2013-09-13 22:00:00,81.0,71.4,29.85,South,189,0.0,4.0,73,0.00,,---,0.00,VWS V13.01,2013-09-14 03:00:00,
2013-09-13 22:10:00,80.8,71.2,29.85,SSW,203,0.0,5.8,73,0.00,,---,0.00,VWS V13.01,2013-09-14 03:10:00,
2013-09-13 22:20:00,80.6,71.1,29.85,SSW,202,0.0,0.0,73,0.00,,---,0.00,VWS V13.01,2013-09-14 03:20:00,
2013-09-13 22:30:00,80.6,71.1,29.85,SSW,202,0.0,0.0,73,0.00,,---,0.00,VWS V13.01,2013-09-14 03:30:00,
2013-09-13 22:40:00,80.6,71.4,29.88,North,357,0.0,4.9,74,0.00,,---,0.00,VWS V13.01,2013-09-14 03:40:00,
2013-09-13 22:50:00,81.0,71.4,29.88,North,3,4.0,5.4,73,0.00,,---,0.00,VWS V13.01,2013-09-14 03:50:00,
2013-09-13 23:00:00,81.1,71.6,29.88,North,7,2.7,4.9,73,0.00,,---,0.00,VWS V13.01,2013-09-14 04:00:00,
2013-09-13 23:10:00,81.1,72.2,29.88,North,353,2.7,5.4,74,0.00,,---,0.00,VWS V13.01,2013-09-14 04:10:00,
2013-09-13 23:20:00,81.0,72.1,29.88,ENE,65,0.0,6.3,74,0.00,,---,0.00,VWS V13.01,2013-09-14 04:20:00,
2013-09-13 23:30:00,81.0,72.1,29.88,NNE,13,0.0,3.1,74,0.00,,---,0.00,VWS V13.01,2013-09-14 04:30:00,
2013-09-13 23:40:00,80.8,72.2,29.88,North,9,0.0,0.0,75,0.00,,---,0.00,VWS V13.01,2013-09-14 04:40:00,
2013-09-13 23:50:00,80.6,72.0,29.88,North,9,0.0,0.0,75,0.00,,---,0.00,VWS V13.01,2013-09-14 04:50:00,